Starlink 2705

operational
NORAD ID: 48672 Int'l Des: 2021-044 Owner: SPXS Country: US Constellation: starlink
LEOCIRCULARSTARLINK_TYPE

About Starlink 2705

Description loading...

Live Position

Loading 3D Globe...

Upcoming Passes

Altitude History

Altitude vs Time

uPlot chart will show altitude changes over time

Two-Line Element Set

1 48672U 21044AL 25304.51047770 .00012926 00000-0 88424-3 0 9992
2 48672 53.0553 331.5266 0001442 89.0654 271.0500 15.06434694244376
Epoch: Oct 31, 2025 • Age: 10 hours

Current Status

Altitude 548.7 km
Velocity 7.59 km/s
Sub-Earth Point 33.43°N, 103.44°E
Launch Date May 26, 2021
Age 4.4 years
Type internet

Technical Details

Classification Payload
Mass 260.00 kg
Dry Mass 248.00 kg
Total Mass 260.00 kg
Length 0.20 m
Diameter 2.80 m
Span 9.00 m
Shape Box + pan
Manufacturer SPXS
Bus Type Starlink
Phase Status In Orbit
Owner/State SPXS/US

Large Constellations

Loading constellations...